[[{"header":{"parameterUnit":"m.s-1","parameterCategory":1,"la1":30.2991,"la2":30.254,"lo1":-89.0895,"lo2":-89.0444,"dy":0.0017,"dx":0.0017,"nx":28,"ny":28,"refTime":"2025-02-12T03:00:00:Z","depth":0,"parameterNumber":2,"parameterNumberName":"U-component_of_WINDS"},"data":[0,0,0,0,0,0,0,0,0,0,0,0,0,0,0,0,0,0,0,0,0,0,0,0,0,0,0,0,0,0,0,0,0,0,0,0,0,0,0,0,0,0,0,0,0,0,0,0,0,0,0,0,0,0,0,0,0,0,0.645,0.6451,0,0.6486,0.6487,0.6487,0.6487,0.6487,0.6486,0.6486,0.6523,0.6524,0.6526,0,0,0,0,0,0,0,0,0,0,0,0,0,0.6382,0.6383,0.645,0.6451,0.6451,0.6486,0.6487,0.6487,0.6487,0.6487,0.6486,0.6486,0.6522,0.6524,0.6526,0,0,0,0,0,0,0,0,0,0,0,0,0,0.6414,0.6384,0.645,0.6455,0.6456,0.6486,0.6487,0.6487,0.6487,0.6487,0.6486,0.6485,0.6522,0.6524,0.6526,0.6553,0,0,0.6532,0.6533,0,0,0,0,0,0,0,0,0.6412,0.6417,0.6454,0.6455,0.6456,0.6481,0.6476,0.6509,0.6488,0.6476,0.6486,0.6485,0.651,0.6513,0.6521,0.6555,0.6556,0.6533,0.6534,0.6535,0.6535,0,0,0,0,0,0,0,0.641,0.6415,0.6465,0.6455,0.6456,0.6456,0.646,0.6482,0.6496,0.6477,0.6477,0.6481,0.651,0.6519,0.6522,0.6557,0.6533,0.6534,0.6536,0.6537,0.6614,0.6615,0,0,0,0,0,0,0.6407,0.6413,0.6463,0.6466,0.6432,0.6458,0.6462,0.6474,0.6496,0.6498,0.6481,0.6481,0.6516,0.6519,0.6523,0.6556,0.6535,0.6537,0.6538,0.6614,0.6614,0.6615,0,0,0,0,0,0,0.6405,0.6411,0.6462,0.6439,0.6446,0.646,0.6473,0.6475,0.6484,0.6499,0.6502,0.6488,0.6515,0.652,0.6545,0.6558,0.6538,0.654,0.6613,0.6614,0.6615,0.6623,0,0,0,0,0,0,0.6403,0.6411,0.6421,0.644,0.6447,0.6484,0.6474,0.6476,0.6488,0.6487,0.6506,0.6509,0.6515,0.6542,0.6548,0.656,0.6541,0.6612,0.6613,0.6615,0.6621,0.6624,0.6626,0,0,0,0,0,0.6401,0.6422,0.6422,0.6428,0.646,0.6484,0.6489,0.6495,0.6489,0.6499,0.6509,0.6508,0.6555,0.6545,0.6551,0.6564,0.6611,0.6613,0.6614,0.662,0.6623,0.6626,0,0,0,0,0,0,0.6405,0.6424,0.6424,0.6452,0.6467,0.6484,0.6498,0.6498,0.6515,0.6514,0.6521,0.6526,0.6551,0.656,0.6548,0.6591,0.6582,0.6585,0.6585,0.6588,0.659,0.6588,0.6543,0,0,0,0,0,0.6408,0.6426,0.6443,0.6466,0.6473,0.6484,0.6495,0.6499,0.6514,0.652,0.6532,0.6547,0.6565,0.6577,0.6594,0.6622,0.6627,0.6634,0.6637,0.6639,0.6641,0.6657,0.6661,0.6621,0.6621,0.6621,0,0,0.6417,0.643,0.6441,0.6467,0.6478,0.6497,0.6489,0.6509,0.6523,0.6523,0.6548,0.6557,0.6574,0.6601,0.6613,0.6609,0.6653,0.6641,0.6642,0.6644,0.6659,0.6663,0.6666,0.6622,0.6622,0.6622,0,0,0.6442,0.6454,0.6474,0.6486,0.6503,0.6511,0.6516,0.6533,0.6539,0.6564,0.6565,0.6581,0.6612,0.6624,0.6635,0.6664,0.6664,0.6669,0.6682,0.6697,0.67,0.6703,0.6713,0.6717,0.6672,0.6672,0.6672,0,0.645,0.6478,0.6484,0.6504,0.6515,0.6516,0.6537,0.6548,0.6571,0.6579,0.6573,0.6612,0.6624,0.6654,0.6661,0.6669,0.6675,0.6667,0.6699,0.6702,0.6705,0.6715,0.6719,0.6672,0.6672,0.6672,0.6672,0,0.6487,0.6507,0.6521,0.6543,0.6555,0.6575,0.6585,0.6597,0.66,0.6607,0.6633,0.6646,0.6667,0.6674,0.6677,0.6704,0.6701,0.6697,0.6688,0.6709,0.6718,0.6722,0.6673,0.6673,0.6673,0.6673,0,0,0.6516,0.6541,0.6546,0.6556,0.6575,0.659,0.661,0.663,0.664,0.6656,0.6673,0.6699,0.6695,0.6707,0.6711,0.6724,0.6747,0.6719,0.672,0.6724,0.6778,0.678,0.6785,0.6746,0.6747,0.6748,0.6776,0,0.6543,0.6579,0.6585,0.6616,0.6634,0.6635,0.6653,0.6666,0.6674,0.669,0.6699,0.6717,0.6711,0.6718,0.6731,0.6741,0.6757,0.6739,0.6762,0.6763,0.6758,0.679,0.6793,0.6819,0.678,0.6781,0.6781,0,0.658,0.6596,0.6629,0.6646,0.6654,0.6669,0.6688,0.6703,0.6719,0.6724,0.6736,0.6739,0.676,0.6749,0.6778,0.6765,0.6775,0.6781,0.6782,0.6785,0.6774,0.6793,0.6827,0.6831,0.6787,0.6787,0.6786,0,0.6597,0.6627,0.6651,0.6659,0.668,0.6691,0.67,0.6715,0.6726,0.6742,0.675,0.6768,0.6778,0.6792,0.68,0.6792,0.6828,0.6818,0.6832,0.6832,0.684,0.684,0.6877,0.6846,0.6846,0.6846,0.6846,0,0.6627,0.6647,0.6659,0.6674,0.6697,0.6703,0.6726,0.6734,0.6748,0.6764,0.6766,0.6781,0.679,0.6806,0.6812,0.6835,0.6839,0.6843,0.6845,0.6844,0.6843,0.685,0.6849,0.6847,0.6847,0.6847,0.6846,0,0.665,0.6659,0.6685,0.6703,0.6707,0.6723,0.6738,0.6752,0.676,0.678,0.6786,0.6797,0.6817,0.6825,0.6849,0.6853,0.6879,0.6879,0.6874,0.6875,0.6888,0.6887,0.6931,0.6938,0.6903,0.6903,0.6903,0,0.6669,0.6684,0.6703,0.6715,0.6724,0.6742,0.6753,0.6761,0.6773,0.6792,0.6803,0.6823,0.6839,0.687,0.6881,0.6899,0.6899,0.6914,0.6902,0.69,0.69,0.6899,0.69,0.6916,0.6916,0.6916,0.6917,0,0.6701,0.6704,0.6721,0.674,0.6754,0.6769,0.6783,0.6792,0.6802,0.6815,0.6835,0.6847,0.6872,0.6891,0.691,0.6919,0.6919,0.692,0.6924,0.6923,0.692,0.6922,0.688,0.6919,0.6919,0.6919,0.6918,0.6918,0.6722,0.6736,0.6752,0.6771,0.6782,0.6796,0.681,0.6819,0.6836,0.6857,0.686,0.6881,0.6896,0.6921,0.6931,0.6948,0.6944,0.6951,0.6952,0.6954,0.6954,0.6917,0.6951,0.6951,0.6951,0.6951,0.6951,0,0.6754,0.6764,0.6781,0.6802,0.6817,0.6816,0.6832,0.6844,0.6863,0.6877,0.6893,0.6915,0.6934,0.6946,0.6965,0.6976,0.6977,0.6981,0.698,0.6982,0.6956,0.6951,0.698,0.698,0.698,0.698,0.698,0.698,0.6773,0.6796,0.6802,0.6831,0.6841,0.6862,0.6871,0.6884,0.6895,0.692,0.6936,0.6944,0.6957,0.6977,0.6994,0.6997,0.7004,0.7008,0.7011,0.6987,0.6984,0.6981,0.6976,0.7009,0.7009,0.7035,0.7035,0.7035]},{"header":{"parameterUnit":"m.s-1","parameterCategory":1,"la1":30.2991,"la2":30.254,"lo1":-89.0895,"lo2":-89.0444,"dy":0.0017,"dx":0.0017,"nx":28,"ny":28,"refTime":"2025-02-12T03:00:00:Z","depth":0,"parameterNumber":3,"parameterNumberName":"V-component_of_WINDS"},"data":[0,0,0,0,0,0,0,0,0,0,0,0,0,0,0,0,0,0,0,0,0,0,0,0,0,0,0,0,0,0,0,0,0,0,0,0,0,0,0,0,0,0,0,0,0,0,0,0,0,0,0,0,0,0,0,0,0,0,6.2948,6.2949,0,6.3051,6.3052,6.3053,6.3059,6.3058,6.3057,6.3056,6.3154,6.3158,6.3161,0,0,0,0,0,0,0,0,0,0,0,0,0,6.275,6.2754,6.2947,6.2949,6.295,6.305,6.3052,6.3053,6.306,6.3058,6.3057,6.3056,6.3153,6.3157,6.3161,0,0,0,0,0,0,0,0,0,0,0,0,0,6.2843,6.2755,6.2947,6.2966,6.2968,6.305,6.3052,6.3054,6.306,6.3058,6.3056,6.3055,6.3151,6.3157,6.3162,6.323,0,0,6.3179,6.3181,0,0,0,0,0,0,0,0,6.2837,6.285,6.2962,6.2964,6.2968,6.3041,6.3018,6.3113,6.306,6.3025,6.3056,6.3054,6.3117,6.3125,6.3148,6.3235,6.3239,6.3179,6.3183,6.3185,6.3187,0,0,0,0,0,0,0,6.2831,6.2845,6.2988,6.2963,6.2967,6.2967,6.2978,6.3036,6.3079,6.3028,6.3029,6.3041,6.3118,6.3143,6.315,6.3241,6.3179,6.3184,6.3188,6.319,6.3391,6.3392,0,0,0,0,0,0,6.2822,6.284,6.2985,6.2991,6.2897,6.2972,6.2984,6.3019,6.3079,6.3086,6.3042,6.3041,6.3134,6.3144,6.3154,6.324,6.3185,6.319,6.3193,6.3388,6.3391,6.3393,0,0,0,0,0,0,6.2818,6.2835,6.2981,6.2916,6.2935,6.2977,6.3016,6.3022,6.3046,6.309,6.3097,6.306,6.3133,6.3146,6.3212,6.3243,6.3193,6.3198,6.3386,6.3389,6.3392,6.3411,0,0,0,0,0,0,6.2812,6.2833,6.2861,6.2917,6.2938,6.3039,6.3017,6.3025,6.3057,6.3056,6.3108,6.3115,6.3133,6.3204,6.3218,6.325,6.3202,6.3384,6.3387,6.3391,6.3408,6.3414,6.342,0,0,0,0,0,6.2805,6.286,6.2862,6.288,6.2974,6.3041,6.3053,6.3075,6.3059,6.3087,6.3115,6.3113,6.3237,6.3211,6.3226,6.326,6.3382,6.3386,6.3391,6.3405,6.3413,6.342,0,0,0,0,0,0,6.2803,6.2867,6.2871,6.2946,6.2989,6.3042,6.3077,6.3082,6.3128,6.3125,6.3147,6.3159,6.3225,6.3249,6.3218,6.3331,6.3308,6.3315,6.3313,6.3321,6.3327,6.332,6.3207,0,0,0,0,0,6.2812,6.2864,6.2916,6.2977,6.2998,6.3034,6.3064,6.3078,6.3122,6.3139,6.3171,6.3212,6.3261,6.3292,6.3338,6.3411,6.3423,6.3442,6.3448,6.3453,6.3459,6.3501,6.3511,6.3408,6.3408,6.3408,0,0,6.283,6.2872,6.2902,6.2978,6.3012,6.3064,6.3049,6.3103,6.3141,6.3146,6.3212,6.3237,6.3284,6.3355,6.3387,6.3376,6.349,6.3458,6.3462,6.3466,6.3507,6.3517,6.3525,6.3411,6.3411,6.341,0,0,6.289,6.2926,6.2982,6.3018,6.3072,6.3096,6.3109,6.3163,6.3181,6.3248,6.3254,6.3297,6.338,6.3414,6.3442,6.3517,6.3517,6.3531,6.3562,6.3603,6.3611,6.3618,6.3647,6.3656,6.3537,6.3537,6.3537,0,6.2904,6.2985,6.3009,6.3066,6.3099,6.3109,6.3165,6.3198,6.3262,6.3284,6.3272,6.3378,6.341,6.3489,6.3508,6.353,6.3545,6.3525,6.3608,6.3616,6.3623,6.365,6.3661,6.3539,6.3538,6.3538,6.3538,0,6.3001,6.3057,6.3095,6.3162,6.3199,6.3255,6.3287,6.3321,6.3332,6.3356,6.3425,6.3464,6.352,6.3539,6.3548,6.362,6.3613,6.3604,6.3581,6.3634,6.366,6.367,6.3541,6.354,6.354,6.3539,0,0,6.3062,6.3144,6.3158,6.3189,6.325,6.3293,6.3348,6.3406,6.3436,6.348,6.3528,6.3598,6.3592,6.3624,6.3636,6.3672,6.3731,6.3659,6.3661,6.3673,6.3815,6.3822,6.3833,6.3732,6.3734,6.3735,6.3811,0,6.313,6.3233,6.3258,6.3346,6.3398,6.3408,6.3457,6.3499,6.3523,6.3569,6.3595,6.3646,6.3633,6.3653,6.3688,6.3716,6.376,6.3711,6.3775,6.3777,6.3765,6.3847,6.3854,6.3924,6.3821,6.3823,6.3824,0,6.3222,6.3273,6.3367,6.3424,6.3447,6.349,6.3547,6.3591,6.3638,6.3653,6.369,6.37,6.3758,6.3732,6.3811,6.3778,6.3805,6.3823,6.3826,6.3834,6.3805,6.3858,6.3947,6.3958,6.384,6.3839,6.3838,0,6.326,6.3351,6.342,6.3446,6.3513,6.3544,6.3573,6.3619,6.3653,6.3701,6.3723,6.3775,6.3805,6.3844,6.3868,6.3847,6.3946,6.3922,6.396,6.396,6.3981,6.398,6.4077,6.3997,6.3996,6.3996,6.3996,0,6.3334,6.3391,6.3439,6.3481,6.3545,6.3573,6.3635,6.3663,6.3705,6.3752,6.3762,6.3806,6.3834,6.3881,6.3899,6.3963,6.3975,6.3989,6.3993,6.3989,6.3988,6.4008,6.4004,6.3999,6.3998,6.3998,6.3997,0,6.3386,6.3421,6.3497,6.3556,6.3572,6.3617,6.3666,6.3707,6.3732,6.3792,6.3807,6.3846,6.3903,6.393,6.3998,6.4011,6.4084,6.4084,6.4069,6.4071,6.4109,6.4106,6.4224,6.4241,6.4148,6.4148,6.4149,0,6.3432,6.3477,6.3542,6.3576,6.3607,6.3661,6.3697,6.3725,6.3761,6.382,6.3854,6.3911,6.3959,6.4048,6.4081,6.4134,6.4136,6.4174,6.4144,6.4139,6.4139,6.4137,6.4142,6.418,6.4181,6.4182,6.4182,0,6.351,6.3526,6.3579,6.3638,6.3682,6.3729,6.3775,6.3801,6.3837,6.3877,6.3936,6.3974,6.4046,6.4103,6.4158,6.4185,6.419,6.4191,6.4204,6.42,6.419,6.4198,6.4085,6.4189,6.4188,6.4188,6.4187,6.4187,6.3562,6.3604,6.3657,6.3716,6.3755,6.3798,6.3841,6.3873,6.3924,6.3988,6.4,6.4064,6.411,6.4186,6.4216,6.4264,6.4256,6.4273,6.4277,6.4281,6.4285,6.4182,6.4274,6.4274,6.4274,6.4274,6.4274,0,6.3642,6.3678,6.3732,6.3799,6.3845,6.3848,6.39,6.3938,6.3995,6.4039,6.4087,6.4156,6.4212,6.4251,6.4307,6.4338,6.4342,6.4352,6.4351,6.4358,6.4288,6.4273,6.4349,6.4349,6.4349,6.4349,6.4349,6.4349,6.369,6.3762,6.3783,6.3874,6.3908,6.3973,6.4003,6.4043,6.408,6.4157,6.4205,6.4231,6.4273,6.4333,6.4384,6.4394,6.4415,6.4426,6.4435,6.437,6.4362,6.4355,6.4341,6.443,6.443,6.4501,6.4502,6.4502]}]]